Toledo Metcalf, OH

12:05 AM EST on November 21, 2017 (GMT -0500)
Metcalf

Weather History for KTDZ - May, 2014

Change the Weather History Date:

Thursday, May 29, 2014

  Actual Average (KTOL) Record (KTOL)
Temperature  
Mean Temperature 64 °F -  
Max Temperature 71 °F 75 °F 93 °F (1962)
Min Temperature 59 °F 51 °F 33 °F (1966)
Growing Degree Days 14 (Base 50)    
Moisture  
Dew Point 53 °F    
Average Humidity 69    
Maximum Humidity 81    
Minimum Humidity 51    
Precipitation  
Precipitation 0.00 in - - ()
Sea Level Pressure  
Sea Level Pressure 30.12 in    
Wind  
Wind Speed 8 mph (ENE)    
Max Wind Speed 13 mph    
Max Gust Speed -    
Visibility 10 miles    
Events      
Averages and records for this station are not official NWS values.
T = Trace of Precipitation, MM = Missing Value Source: NWS Daily Summary

Daily Weather History Graph

Daily Weather History Graph

Search for Another Location

Airport or City:

Trip Planner

Search our weather history database for the weather conditions in past years. The results will help you decide how hot, cold, wet, or windy it might be!

Date:

Astronomy

May. 29, 2014 Rise Set
Actual Time 6:03 AM EDT 8:59 PM EDT
Civil Twilight 5:30 AM EDT 9:32 PM EDT
Nautical Twilight 4:49 AM EDT 10:14 PM EDT
Astronomical Twilight 4:00 AM EDT 11:03 PM EDT
Moon 6:57 AM EDT (5/29) 9:47 PM EDT (5/29)
Length of Visible Light 16h 01m
Length of Day
14h 55m
New Moon, 1% of the Moon is Illuminated
May 29
New Moon
Jun 5
First Quarter
Jun 13
Full
Jun 19
Last Quarter
Jun 27
New

Hourly Weather History & Observations

Time (EDT) Temp. Dew Point Humidity Pressure Visibility Wind Dir Wind Speed Gust Speed Precip Events Conditions
12:53 AM 62.1 °F 55.0 °F 78% 30.08 in 10.0 mi NE 6.9 mph - N/A   Overcast
2:53 AM 61.0 °F 54.0 °F 78% 30.07 in 10.0 mi ENE 8.1 mph - N/A   Overcast
4:53 AM 60.1 °F 53.1 °F 78% 30.07 in 10.0 mi NE 8.1 mph - N/A   Scattered Clouds
5:53 AM 60.1 °F 53.1 °F 78% 30.07 in 10.0 mi ENE 9.2 mph - N/A   Clear
6:53 AM 59.0 °F 53.1 °F 81% 30.10 in 10.0 mi NE 8.1 mph - N/A   Clear
7:53 AM 60.1 °F 53.1 °F 78% 30.11 in 10.0 mi ENE 8.1 mph - N/A   Overcast
8:53 AM 63.0 °F 54.0 °F 72% 30.12 in 10.0 mi NE 9.2 mph - N/A   Overcast
9:53 AM 64.0 °F 54.0 °F 70% 30.14 in 10.0 mi ENE 10.4 mph - N/A   Clear
10:53 AM 66.9 °F 54.0 °F 63% 30.14 in 10.0 mi ENE 10.4 mph - N/A   Clear
11:53 AM 66.0 °F 53.1 °F 63% 30.15 in 10.0 mi ENE 9.2 mph - N/A   Clear
12:53 PM 68.0 °F 54.0 °F 61% 30.15 in 10.0 mi ENE 12.7 mph - N/A   Clear
1:53 PM 69.1 °F 55.0 °F 61% 30.14 in 10.0 mi NE 10.4 mph - N/A   Clear
2:53 PM 70.0 °F 55.0 °F 59% 30.14 in 10.0 mi ENE 9.2 mph - N/A   Clear
3:53 PM 69.1 °F 54.0 °F 58% 30.11 in 10.0 mi NE 9.2 mph - N/A   Clear
6:53 PM 70.0 °F 51.1 °F 51% 30.10 in 10.0 mi East 6.9 mph - N/A   Clear
7:53 PM 68.0 °F 52.0 °F 56% 30.12 in 10.0 mi East 9.2 mph - N/A   Clear
8:53 PM 64.9 °F 53.1 °F 65% 30.12 in 10.0 mi ENE 4.6 mph - N/A   Clear
9:53 PM 61.0 °F 52.0 °F 72% 30.13 in 10.0 mi East 3.5 mph - N/A   Clear
10:53 PM 60.1 °F 52.0 °F 75% 30.15 in 10.0 mi NE 3.5 mph - N/A   Clear
11:53 PM 59.0 °F 52.0 °F 78% 30.16 in 10.0 mi Calm Calm - N/A   Clear